CSAV Lonquen — A8OT2 — position and weather

sailwx.info

Track history (hours):
 
Tides and Currents Weather Stations Pressure Air Temp Water Temp Dewpoint Dewpoint Depression Visibility Wind Speed Wind Dir Waves Ship Positions

CSAV Lonquen

Last reported at 2014-Oct-25 15:31 UTC. Time now 2014-Oct-25 16:02 UTC.
Position N 53°36' E 008°31'.

Length 261 m; draft 10.2 m.

Type: Ship (hazmat cat A). MMSI: 636091501.

Date/timePositionNaut miles runAvg speedWind from/ knotsBaromVisibWave heightAir tempDewpointWater temp
2014-Oct-25 15:31N 53°36' E 008°31'0 0.3
2014-Oct-25 14:33N 53°36' E 008°30'1010.4
2014-Oct-25 13:34N 53°43' E 008°17'1211.8
2014-Oct-25 12:34N 53°51' E 008°02'10 9.7
2014-Oct-25 11:32N 53°53' E 007°46'2 1.9
2014-Oct-25 10:29N 53°55' E 007°48'0 0.0
2014-Oct-25 09:30N 53°55' E 007°48'0 0.0
2014-Oct-25 08:32N 53°55' E 007°48'0 0.0
2014-Oct-25 07:11N 53°55' E 007°48'0 0.0
2014-Oct-25 06:32N 53°55' E 007°47'0 0.1
2014-Oct-25 05:32N 53°55' E 007°47'0 0.1
2014-Oct-25 04:32N 53°55' E 007°47'0 0.0
2014-Oct-25 03:14N 53°55' E 007°47'0 0.0
2014-Oct-25 02:32N 53°55' E 007°47'0 0.0
2014-Oct-25 01:14N 53°55' E 007°47'0 0.1
2014-Oct-25 00:32N 53°55' E 007°47'0 0.0
2014-Oct-24 20:29N 53°55' E 007°48'0 0.0
2014-Oct-24 15:05N 53°55' E 007°47'0 0.0
2014-Oct-24 14:29N 53°55' E 007°47'0 0.1
2014-Oct-24 13:20N 53°55' E 007°47'0 0.1
2014-Oct-24 12:32N 53°55' E 007°47'0 0.0
2014-Oct-23 23:23N 53°55' E 007°47'46 9.2
2014-Oct-23 18:19N 53°46' E 006°30'810.1
2014-Oct-23 17:32N 53°44' E 006°17'9 9.7
2014-Oct-23 16:33N 53°41' E 006°02'9 9.1
2014-Oct-23 15:33N 53°39' E 005°47'8 8.5
2014-Oct-23 14:33N 53°36' E 005°34'8 8.1
2014-Oct-23 13:33N 53°33' E 005°21'8 8.0
2014-Oct-23 12:33N 53°30' E 005°08'8 8.2
2014-Oct-23 11:33N 53°27' E 004°55'9 8.8
2014-Oct-23 10:34N 53°23' E 004°43'37 8.9
2014-Oct-23 06:22N 52°49' E 004°15'8 9.9
2014-Oct-23 05:33N 52°43' E 004°07'1110.5
2014-Oct-23 04:33N 52°34' E 003°58'1010.6
2014-Oct-23 03:33N 52°24' E 003°53'1010.4
2014-Oct-23 02:33N 52°14' E 003°53'1010.3
2014-Oct-23 01:33N 52°03' E 003°56'1111.3
2014-Oct-23 00:33N 51°57' E 004°11'9 8.9
2014-Oct-22 23:34N 51°54' E 004°24'1 1.1
2014-Oct-22 22:33N 51°54' E 004°26'0 0.0
2014-Oct-22 21:33N 51°54' E 004°26'0 0.0
2014-Oct-22 20:33N 51°54' E 004°26'0 0.0
2014-Oct-22 19:33N 51°54' E 004°26'0 0.0
2014-Oct-22 18:33N 51°54' E 004°26'0 0.0
2014-Oct-22 17:33N 51°54' E 004°26'0 0.0
2014-Oct-22 16:33N 51°54' E 004°26'0 0.0
2014-Oct-22 15:33N 51°54' E 004°26'0 0.0
2014-Oct-22 14:33N 51°54' E 004°26'0 0.0
2014-Oct-22 13:33N 51°54' E 004°26'0 0.0
2014-Oct-22 12:33N 51°54' E 004°26'0 0.0
2014-Oct-22 11:33N 51°54' E 004°26'0 0.0
2014-Oct-22 10:33N 51°54' E 004°26'0 0.0
2014-Oct-22 09:33N 51°54' E 004°26'0 0.0
2014-Oct-22 08:33N 51°54' E 004°26'0 0.0
2014-Oct-22 07:33N 51°54' E 004°26'0 0.0
2014-Oct-22 06:33N 51°54' E 004°26'0 0.0
2014-Oct-22 05:33N 51°54' E 004°26'0 0.0
2014-Oct-22 04:33N 51°54' E 004°26'0 0.0
2014-Oct-22 03:33N 51°54' E 004°26'0 0.0
2014-Oct-22 02:33N 51°54' E 004°26'0 0.0
2014-Oct-22 01:33N 51°54' E 004°26'0 0.0
2014-Oct-22 00:33N 51°54' E 004°26'0 0.0
2014-Oct-21 23:33N 51°54' E 004°26'0 0.0
2014-Oct-21 22:33N 51°54' E 004°26'0 0.0
2014-Oct-21 21:33N 51°54' E 004°26'0 0.0
2014-Oct-21 20:33N 51°54' E 004°26'0 0.0
2014-Oct-21 19:33N 51°54' E 004°26'0 0.0
2014-Oct-21 18:33N 51°54' E 004°26'0 0.0
2014-Oct-21 17:33N 51°54' E 004°26'0 0.0
2014-Oct-21 16:33N 51°54' E 004°26'0 0.2
2014-Oct-21 15:33N 51°54' E 004°26'7 6.7
2014-Oct-21 14:33N 51°55' E 004°15'1312.8
2014-Oct-21 13:34N 52°01' E 003°57'10 9.7
2014-Oct-21 12:33N 52°01' E 003°42'9 8.9
2014-Oct-21 11:33N 51°57' E 003°29'3812.5
2014-Oct-21 08:31N 51°51' E 002°28'1410.3
2014-Oct-21 07:12N 51°52' E 002°07'710.3
2014-Oct-21 06:33N 51°49' E 001°57'9 9.4
2014-Oct-21 05:33N 51°51' E 001°41'10 9.6
2014-Oct-21 04:33N 51°56' E 001°29'7 6.6
2014-Oct-21 03:31N 51°58' E 001°18'0 0.0
2014-Oct-21 02:31N 51°58' E 001°18'0 0.0
2014-Oct-21 01:31N 51°58' E 001°18'0 0.0
2014-Oct-21 00:31N 51°58' E 001°18'0 0.0
2014-Oct-20 23:31N 51°58' E 001°18'0 0.0
2014-Oct-20 22:31N 51°58' E 001°18'0 0.0
2014-Oct-20 21:31N 51°58' E 001°18'0 0.0
2014-Oct-20 20:31N 51°58' E 001°18'0 0.0
2014-Oct-20 19:31N 51°58' E 001°18'0 0.0
2014-Oct-20 18:31N 51°58' E 001°18'0 0.0
2014-Oct-20 17:31N 51°58' E 001°18'0 0.0
2014-Oct-20 16:31N 51°58' E 001°18'0 0.0
2014-Oct-20 15:31N 51°58' E 001°18'0 0.0
2014-Oct-20 14:31N 51°58' E 001°18'0 0.0
2014-Oct-20 13:31N 51°58' E 001°18'0 0.0
2014-Oct-20 12:31N 51°58' E 001°18'0 0.0
2014-Oct-20 11:31N 51°58' E 001°18'0 0.0
2014-Oct-20 10:31N 51°58' E 001°18'0 0.0
2014-Oct-20 09:31N 51°58' E 001°18'0 0.0
2014-Oct-20 08:31N 51°58' E 001°18'0 0.0
2014-Oct-20 07:31N 51°58' E 001°18'0 0.0
2014-Oct-20 06:31N 51°58' E 001°18'2 1.6
2014-Oct-20 05:33N 51°56' E 001°19'1010.4
2014-Oct-20 04:33N 51°52' E 001°34'7 6.5
2014-Oct-20 03:34N 51°51' E 001°45'6 6.3
2014-Oct-20 02:34N 51°45' E 001°49'1312.6
2014-Oct-20 01:34N 51°33' E 001°54'1111.5
2014-Oct-20 00:33N 51°22' E 001°59'1514.6
2014-Oct-19 23:33N 51°10' E 001°45'1615.9
2014-Oct-19 22:33N 50°58' E 001°29'1615.8
2014-Oct-19 21:32N 50°43' E 001°20'  
2014-Oct-17 13:33N 38°03' W 009°41'1818.2
2014-Oct-17 12:33N 37°45' W 009°36'2018.4
2014-Oct-17 11:28N 37°26' W 009°30'20717.0
2014-Oct-16 23:17N 35°58' W 005°37'1114.6
2014-Oct-16 22:33N 36°00' W 005°24'1514.6
2014-Oct-16 21:33N 36°03' W 005°06'25117.7
2014-Oct-16 07:26N 36°54' W 000°01'2418.2
2014-Oct-16 06:08N 36°60' E 000°27'  
Track history (hours):
 
Tides and Currents Weather Stations Pressure Air Temp Water Temp Dewpoint Dewpoint Depression Visibility Wind Speed Wind Dir Waves Ship Positions

CSAV Lonquen

Last reported at 2014-Oct-25 15:31 UTC. Time now 2014-Oct-25 16:02 UTC.
Position N 53°36' E 008°31'.

Length 261 m; draft 10.2 m.

Type: Ship (hazmat cat A). MMSI: 636091501.

Date/timePositionNaut miles runAvg speedWind from/ knotsBaromVisibWave heightAir tempDewpointWater temp
2014-Oct-25 15:31N 53°36' E 008°31'0 0.3
2014-Oct-25 14:33N 53°36' E 008°30'1010.4
2014-Oct-25 13:34N 53°43' E 008°17'1211.8
2014-Oct-25 12:34N 53°51' E 008°02'10 9.7
2014-Oct-25 11:32N 53°53' E 007°46'2 1.9
2014-Oct-25 10:29N 53°55' E 007°48'0 0.0
2014-Oct-25 09:30N 53°55' E 007°48'0 0.0
2014-Oct-25 08:32N 53°55' E 007°48'0 0.0
2014-Oct-25 07:11N 53°55' E 007°48'0 0.0
2014-Oct-25 06:32N 53°55' E 007°47'0 0.1
2014-Oct-25 05:32N 53°55' E 007°47'0 0.1
2014-Oct-25 04:32N 53°55' E 007°47'0 0.0
2014-Oct-25 03:14N 53°55' E 007°47'0 0.0
2014-Oct-25 02:32N 53°55' E 007°47'0 0.0
2014-Oct-25 01:14N 53°55' E 007°47'0 0.1
2014-Oct-25 00:32N 53°55' E 007°47'0 0.0
2014-Oct-24 20:29N 53°55' E 007°48'0 0.0
2014-Oct-24 15:05N 53°55' E 007°47'0 0.0
2014-Oct-24 14:29N 53°55' E 007°47'0 0.1
2014-Oct-24 13:20N 53°55' E 007°47'0 0.1
2014-Oct-24 12:32N 53°55' E 007°47'0 0.0
2014-Oct-23 23:23N 53°55' E 007°47'46 9.2
2014-Oct-23 18:19N 53°46' E 006°30'810.1
2014-Oct-23 17:32N 53°44' E 006°17'9 9.7
2014-Oct-23 16:33N 53°41' E 006°02'9 9.1
2014-Oct-23 15:33N 53°39' E 005°47'8 8.5
2014-Oct-23 14:33N 53°36' E 005°34'8 8.1
2014-Oct-23 13:33N 53°33' E 005°21'8 8.0
2014-Oct-23 12:33N 53°30' E 005°08'8 8.2
2014-Oct-23 11:33N 53°27' E 004°55'9 8.8
2014-Oct-23 10:34N 53°23' E 004°43'37 8.9
2014-Oct-23 06:22N 52°49' E 004°15'8 9.9
2014-Oct-23 05:33N 52°43' E 004°07'1110.5
2014-Oct-23 04:33N 52°34' E 003°58'1010.6
2014-Oct-23 03:33N 52°24' E 003°53'1010.4
2014-Oct-23 02:33N 52°14' E 003°53'1010.3
2014-Oct-23 01:33N 52°03' E 003°56'1111.3
2014-Oct-23 00:33N 51°57' E 004°11'9 8.9
2014-Oct-22 23:34N 51°54' E 004°24'1 1.1
2014-Oct-22 22:33N 51°54' E 004°26'0 0.0
2014-Oct-22 21:33N 51°54' E 004°26'0 0.0
2014-Oct-22 20:33N 51°54' E 004°26'0 0.0
2014-Oct-22 19:33N 51°54' E 004°26'0 0.0
2014-Oct-22 18:33N 51°54' E 004°26'0 0.0
2014-Oct-22 17:33N 51°54' E 004°26'0 0.0
2014-Oct-22 16:33N 51°54' E 004°26'0 0.0
2014-Oct-22 15:33N 51°54' E 004°26'0 0.0
2014-Oct-22 14:33N 51°54' E 004°26'0 0.0
2014-Oct-22 13:33N 51°54' E 004°26'0 0.0
2014-Oct-22 12:33N 51°54' E 004°26'0 0.0
2014-Oct-22 11:33N 51°54' E 004°26'0 0.0
2014-Oct-22 10:33N 51°54' E 004°26'0 0.0
2014-Oct-22 09:33N 51°54' E 004°26'0 0.0
2014-Oct-22 08:33N 51°54' E 004°26'0 0.0
2014-Oct-22 07:33N 51°54' E 004°26'0 0.0
2014-Oct-22 06:33N 51°54' E 004°26'0 0.0
2014-Oct-22 05:33N 51°54' E 004°26'0 0.0
2014-Oct-22 04:33N 51°54' E 004°26'0 0.0
2014-Oct-22 03:33N 51°54' E 004°26'0 0.0
2014-Oct-22 02:33N 51°54' E 004°26'0 0.0
2014-Oct-22 01:33N 51°54' E 004°26'0 0.0
2014-Oct-22 00:33N 51°54' E 004°26'0 0.0
2014-Oct-21 23:33N 51°54' E 004°26'0 0.0
2014-Oct-21 22:33N 51°54' E 004°26'0 0.0
2014-Oct-21 21:33N 51°54' E 004°26'0 0.0
2014-Oct-21 20:33N 51°54' E 004°26'0 0.0
2014-Oct-21 19:33N 51°54' E 004°26'0 0.0
2014-Oct-21 18:33N 51°54' E 004°26'0 0.0
2014-Oct-21 17:33N 51°54' E 004°26'0 0.0
2014-Oct-21 16:33N 51°54' E 004°26'0 0.2
2014-Oct-21 15:33N 51°54' E 004°26'7 6.7
2014-Oct-21 14:33N 51°55' E 004°15'1312.8
2014-Oct-21 13:34N 52°01' E 003°57'10 9.7
2014-Oct-21 12:33N 52°01' E 003°42'9 8.9
2014-Oct-21 11:33N 51°57' E 003°29'3812.5
2014-Oct-21 08:31N 51°51' E 002°28'1410.3
2014-Oct-21 07:12N 51°52' E 002°07'710.3
2014-Oct-21 06:33N 51°49' E 001°57'9 9.4
2014-Oct-21 05:33N 51°51' E 001°41'10 9.6
2014-Oct-21 04:33N 51°56' E 001°29'7 6.6
2014-Oct-21 03:31N 51°58' E 001°18'0 0.0
2014-Oct-21 02:31N 51°58' E 001°18'0 0.0
2014-Oct-21 01:31N 51°58' E 001°18'0 0.0
2014-Oct-21 00:31N 51°58' E 001°18'0 0.0
2014-Oct-20 23:31N 51°58' E 001°18'0 0.0
2014-Oct-20 22:31N 51°58' E 001°18'0 0.0
2014-Oct-20 21:31N 51°58' E 001°18'0 0.0
2014-Oct-20 20:31N 51°58' E 001°18'0 0.0
2014-Oct-20 19:31N 51°58' E 001°18'0 0.0
2014-Oct-20 18:31N 51°58' E 001°18'0 0.0
2014-Oct-20 17:31N 51°58' E 001°18'0 0.0
2014-Oct-20 16:31N 51°58' E 001°18'0 0.0
2014-Oct-20 15:31N 51°58' E 001°18'0 0.0
2014-Oct-20 14:31N 51°58' E 001°18'0 0.0
2014-Oct-20 13:31N 51°58' E 001°18'0 0.0
2014-Oct-20 12:31N 51°58' E 001°18'0 0.0
2014-Oct-20 11:31N 51°58' E 001°18'0 0.0
2014-Oct-20 10:31N 51°58' E 001°18'0 0.0
2014-Oct-20 09:31N 51°58' E 001°18'0 0.0
2014-Oct-20 08:31N 51°58' E 001°18'0 0.0
2014-Oct-20 07:31N 51°58' E 001°18'0 0.0
2014-Oct-20 06:31N 51°58' E 001°18'2 1.6
2014-Oct-20 05:33N 51°56' E 001°19'1010.4
2014-Oct-20 04:33N 51°52' E 001°34'7 6.5
2014-Oct-20 03:34N 51°51' E 001°45'6 6.3
2014-Oct-20 02:34N 51°45' E 001°49'1312.6
2014-Oct-20 01:34N 51°33' E 001°54'1111.5
2014-Oct-20 00:33N 51°22' E 001°59'1514.6
2014-Oct-19 23:33N 51°10' E 001°45'1615.9
2014-Oct-19 22:33N 50°58' E 001°29'1615.8
2014-Oct-19 21:32N 50°43' E 001°20'  
2014-Oct-17 13:33N 38°03' W 009°41'1818.2
2014-Oct-17 12:33N 37°45' W 009°36'2018.4
2014-Oct-17 11:28N 37°26' W 009°30'20717.0
2014-Oct-16 23:17N 35°58' W 005°37'1114.6
2014-Oct-16 22:33N 36°00' W 005°24'1514.6
2014-Oct-16 21:33N 36°03' W 005°06'25117.7
2014-Oct-16 07:26N 36°54' W 000°01'2418.2
2014-Oct-16 06:08N 36°60' E 000°27'  

Dump ship's entire track history